When you browse on this site, cookies collect data to enhance your experience and personalize the content and advertising you see.
Visit our Privacy Policy to learn more. By continuing to use the site, you agree to this use of cookies and data.
  • In Romania
  • List of Countries
  • For 7 days
  • Water Temperature
  • Satellite Maps
  • Weather Map
  • Weather Widgets
  • user-avatar
    Login

    Hourly Weather Zalaegerszeg

    Today, 22 January, Tuesday

    Time Temperature Precipitation Wind Pressure Humidity
    00:00 -1°C° 0 mm 0 mps 750 mmHg 62%
    01:00 -2°C° 0 mm 0 mps 750 mmHg 64%
    02:00 -2°C° 0 mm 0 mps 750 mmHg 65%
    03:00 -1°C° 0 mm 1 mps 749 mmHg 65%
    04:00 -1°C° 0 mm 1 mps 749 mmHg 65%
    05:00 -1°C° 0 mm 1 mps 749 mmHg 66%
    06:00 -1°C° 0 mm 1 mps 748 mmHg 66%
    07:00 -2°C° 0 mm 1 mps 748 mmHg 64%
    08:00 -1°C° 0 mm 1 mps 748 mmHg 60%
    09:00 -1°C° 0 mm 1 mps 748 mmHg 56%
    10:00 0°C° 0 mm 1 mps 747 mmHg 52%
    11:00 +1°C° 0 mm 1 mps 747 mmHg 49%
    12:00 -1°C° 0 mm 2 mps 746 mmHg 46%
    13:00 +1°C° 0 mm 2 mps 746 mmHg 43%
    14:00 -1°C° 0 mm 2 mps 745 mmHg 46%
    15:00 -1°C° 0 mm 2 mps 744 mmHg 49%
    16:00 -1°C° 0 mm 2 mps 744 mmHg 52%
    17:00 -2°C° 0 mm 2 mps 743 mmHg 56%
    18:00 -2°C° 0 mm 2 mps 743 mmHg 60%
    19:00 -3°C° 0 mm 2 mps 742 mmHg 65%
    20:00 -3°C° 0 mm 2 mps 742 mmHg 67%
    21:00 -3°C° 0 mm 2 mps 742 mmHg 69%
    22:00 -3°C° 0 mm 2 mps 741 mmHg 71%
    23:00 -3°C° 0 mm 2 mps 741 mmHg 71%

    Tomorrow, 23 January, Wednesday

    Time Temperature Precipitation Wind Pressure Humidity
    00:00 -3°C° 0 mm 2 mps 740 mmHg 71%
    01:00 -3°C° 0 mm 2 mps 740 mmHg 71%
    02:00 -3°C° 0.1 mm 2 mps 739 mmHg 72%
    03:00 -3°C° 0.1 mm 2 mps 739 mmHg 73%
    04:00 -3°C° 0.1 mm 2 mps 738 mmHg 73%
    05:00 -4°C° 0.4 mm 2 mps 738 mmHg 78%
    06:00 -4°C° 0.4 mm 2 mps 738 mmHg 83%
    07:00 -4°C° 0.4 mm 2 mps 737 mmHg 88%
    08:00 -4°C° 0.5 mm 2 mps 737 mmHg 89%
    09:00 -4°C° 0.5 mm 2 mps 737 mmHg 89%
    10:00 -4°C° 0.5 mm 2 mps 737 mmHg 90%
    11:00 -3°C° 0.3 mm 2 mps 737 mmHg 89%
    12:00 -3°C° 0.3 mm 2 mps 737 mmHg 88%
    13:00 0°C° 0.3 mm 1 mps 736 mmHg 86%
    14:00 0°C° 0 mm 1 mps 736 mmHg 87%
    15:00 0°C° 0 mm 1 mps 736 mmHg 87%
    16:00 0°C° 0 mm 1 mps 736 mmHg 88%
    17:00 0°C° 0 mm 1 mps 736 mmHg 90%
    18:00 0°C° 0 mm 1 mps 737 mmHg 92%
    19:00 -1°C° 0 mm 1 mps 737 mmHg 94%
    20:00 -1°C° 0 mm 1 mps 737 mmHg 94%
    21:00 0°C° 0 mm 1 mps 737 mmHg 94%
    22:00 0°C° 0 mm 1 mps 738 mmHg 94%
    23:00 0°C° 0 mm 1 mps 738 mmHg 94%

    Day after tomorrow, 24 January, Thursday

    Time Temperature Precipitation Wind Pressure Humidity
    00:00 0°C° 0 mm 1 mps 738 mmHg 94%
    01:00 -1°C° 0 mm 1 mps 738 mmHg 94%
    02:00 -1°C° 0 mm 1 mps 738 mmHg 94%
    03:00 -3°C° 0 mm 2 mps 738 mmHg 94%
    04:00 -3°C° 0 mm 2 mps 738 mmHg 94%
    05:00 -3°C° 0 mm 2 mps 739 mmHg 94%
    06:00 -3°C° 0 mm 2 mps 739 mmHg 93%
    07:00 -3°C° 0 mm 2 mps 739 mmHg 93%
    08:00 -2°C° 0 mm 3 mps 739 mmHg 92%
    09:00 -2°C° 0 mm 3 mps 740 mmHg 90%
    10:00 -2°C° 0 mm 3 mps 740 mmHg 88%
    11:00 -2°C° 0 mm 4 mps 740 mmHg 86%
    12:00 -2°C° 0 mm 4 mps 740 mmHg 83%
    13:00 -2°C° 0 mm 5 mps 739 mmHg 81%
    14:00 -2°C° 0 mm 5 mps 739 mmHg 79%
    15:00 -2°C° 0 mm 5 mps 739 mmHg 78%
    16:00 -4°C° 0 mm 5 mps 740 mmHg 76%
    17:00 -4°C° 0 mm 6 mps 740 mmHg 74%
    18:00 -5°C° 0 mm 6 mps 740 mmHg 72%
    19:00 -6°C° 0 mm 7 mps 741 mmHg 71%
    20:00 -6°C° 0 mm 7 mps 741 mmHg 69%
    21:00 -6°C° 0 mm 7 mps 741 mmHg 68%
    22:00 -6°C° 0 mm 7 mps 742 mmHg 67%
    23:00 -7°C° 0 mm 7 mps 742 mmHg 68%

    25 January, Friday

    Time Temperature Precipitation Wind Pressure Humidity
    00:00 -7°C° 0 mm 7 mps 742 mmHg 68%
    01:00 -7°C° 0 mm 7 mps 742 mmHg 69%
    02:00 -7°C° 0 mm 8 mps 741 mmHg 68%
    03:00 -7°C° 0 mm 8 mps 741 mmHg 68%
    04:00 -8°C° 0 mm 9 mps 741 mmHg 67%
    05:00 -7°C° 0 mm 8 mps 741 mmHg 66%
    06:00 -7°C° 0 mm 8 mps 742 mmHg 66%
    07:00 -7°C° 0 mm 8 mps 742 mmHg 65%
    08:00 -7°C° 0 mm 8 mps 742 mmHg 63%
    09:00 -6°C° 0 mm 9 mps 742 mmHg 61%
    10:00 -6°C° 0 mm 9 mps 742 mmHg 59%
    11:00 -5°C° 0 mm 10 mps 742 mmHg 58%
    12:00 -5°C° 0 mm 10 mps 742 mmHg 56%
    13:00 -5°C° 0 mm 10 mps 741 mmHg 54%
    14:00 -5°C° 0 mm 10 mps 741 mmHg 55%
    15:00 -5°C° 0 mm 10 mps 741 mmHg 56%
    16:00 -5°C° 0 mm 9 mps 741 mmHg 57%
    17:00 -7°C° 0 mm 10 mps 741 mmHg 58%
    18:00 -7°C° 0 mm 10 mps 742 mmHg 59%
    19:00 -7°C° 0 mm 11 mps 742 mmHg 59%
    20:00 -7°C° 0 mm 11 mps 742 mmHg 60%
    21:00 -7°C° 0 mm 11 mps 742 mmHg 60%
    22:00 -7°C° 0 mm 11 mps 742 mmHg 60%
    23:00 -7°C° 0 mm 11 mps 742 mmHg 60%

    26 January, Saturday

    Time Temperature Precipitation Wind Pressure Humidity
    00:00 -8°C° 0 mm 11 mps 742 mmHg 60%
    01:00 -8°C° 0 mm 11 mps 742 mmHg 60%
    02:00 -8°C° 0 mm 11 mps 742 mmHg 60%
    03:00 -8°C° 0 mm 11 mps 742 mmHg 60%
    04:00 -8°C° 0 mm 11 mps 742 mmHg 59%
    05:00 -8°C° 0 mm 11 mps 742 mmHg 59%
    06:00 -8°C° 0 mm 11 mps 742 mmHg 59%
    07:00 -8°C° 0 mm 11 mps 742 mmHg 58%
    08:00 -8°C° 0 mm 11 mps 743 mmHg 57%
    09:00 -7°C° 0 mm 11 mps 743 mmHg 56%
    10:00 -7°C° 0 mm 11 mps 743 mmHg 55%
    11:00 -7°C° 0 mm 10 mps 743 mmHg 54%
    12:00 -5°C° 0 mm 10 mps 743 mmHg 54%
    13:00 -5°C° 0 mm 10 mps 743 mmHg 53%
    14:00 -5°C° 0 mm 9 mps 743 mmHg 54%
    15:00 -5°C° 0 mm 9 mps 743 mmHg 54%
    16:00 -5°C° 0 mm 8 mps 743 mmHg 55%
    17:00 -5°C° 0.1 mm 8 mps 743 mmHg 57%
    18:00 -6°C° 0.1 mm 8 mps 743 mmHg 58%
    19:00 -6°C° 0.1 mm 8 mps 743 mmHg 60%
    20:00 -6°C° 0.1 mm 7 mps 743 mmHg 61%
    21:00 -6°C° 0.1 mm 7 mps 744 mmHg 62%
    22:00 -6°C° 0.1 mm 7 mps 744 mmHg 63%
    23:00 -5°C° 0.1 mm 6 mps 744 mmHg 64%

    27 January, Sunday

    Time Temperature Precipitation Wind Pressure Humidity
    00:00 -5°C° 0.1 mm 6 mps 744 mmHg 64%
    01:00 -6°C° 0.1 mm 6 mps 743 mmHg 64%
    02:00 -6°C° 0 mm 5 mps 743 mmHg 64%
    03:00 -6°C° 0 mm 5 mps 743 mmHg 64%
    04:00 -5°C° 0 mm 4 mps 743 mmHg 64%
    05:00 -5°C° 0 mm 4 mps 743 mmHg 64%
    06:00 -5°C° 0 mm 3 mps 743 mmHg 65%
    07:00 -5°C° 0 mm 3 mps 743 mmHg 65%
    08:00 -5°C° 0 mm 3 mps 743 mmHg 64%
    09:00 -4°C° 0 mm 3 mps 743 mmHg 63%
    10:00 -4°C° 0 mm 3 mps 743 mmHg 62%
    11:00 -2°C° 0 mm 3 mps 743 mmHg 60%
    12:00 -2°C° 0 mm 2 mps 742 mmHg 58%
    13:00 -1°C° 0 mm 2 mps 742 mmHg 57%
    14:00 -1°C° 0 mm 2 mps 742 mmHg 59%
    15:00 0°C° 0 mm 1 mps 742 mmHg 61%
    16:00 0°C° 0 mm 1 mps 742 mmHg 62%
    17:00 0°C° 0 mm 1 mps 742 mmHg 65%
    18:00 -2°C° 0 mm 0 mps 742 mmHg 68%
    19:00 -2°C° 0 mm 0 mps 742 mmHg 71%
    20:00 -2°C° 0 mm 0 mps 743 mmHg 71%
    21:00 -2°C° 0 mm 0 mps 743 mmHg 72%
    22:00 -2°C° 0 mm 0 mps 743 mmHg 72%
    23:00 -3°C° 0 mm 0 mps 743 mmHg 73%
    Show more